Find Starlink 30563

NORAD ID: 58042 Int'l Des: 2023-156 Owner: SPXS Country: US Constellation: starlink operational
LEOCIRCULAR

現在のビュー

3D地球を読み込み中...

About Starlink 30563

Starlink 30563 (NORAD 58042) is a starlink constellation satellite (v2 mini) launched Oct 9, 2023 by SPXS of US. It operates in LEO, CIRCULAR orbit with a mass of 730.00 kg.

Starlink 30563について

説明を読み込み中...

次回通過

Passes for default location (London). Set your location on the main map for personalized predictions.

高度履歴

Loading altitude history...

軌道要素

1 58042U 23156Q 26165.76745281 -.00000670 00000-0 -10496-4 0 9995
2 58042 53.1611 344.8424 0001107 74.9483 285.1641 15.30205059151218
Epoch: Jun 14, 2026 • Age: 28 hours

現在のステータス

高度 475.9 km
速度 7.63 km/s
衛星直下点 27.30°N, 115.95°E
打ち上げ日 Oct 9, 2023
運用期間 2.6 years
タイプ internet

技術仕様

分類 Payload
質量 730.00 kg
乾燥質量 700.00 kg
総質量 730.00 kg
長さ 0.30 m
直径 4.10 m
スパン 29.00 m
形状 Box + pan
製造者 SPXS
バスタイプ Starlink V2M
フェーズステータス In Orbit
所有者/国 SPXS/US

Most Searched